Date,TemperatureHighF,TemperatureAvgF,TemperatureLowF,DewpointHighF,DewpointAvgF,DewpointLowF,HumidityHigh,HumidityAvg,HumidityLow,PressureMaxIn,PressureMinIn,WindSpeedMaxMPH,WindSpeedAvgMPH,GustSpeedMaxMPH,PrecipitationSumIn
2013-1-1,40.1,33.5,28.1,37.9,31.7,26.8,97,93,84,30.48,30.32,4,1,7,0.02
2013-1-2,38.9,33.0,28.8,36.5,31.6,27.8,96,95,90,30.33,30.17,3,1,4,0.00
2013-1-3,37.6,31.7,25.2,35.3,30.2,23.9,97,94,87,30.17,30.08,3,0,3,0.12
2013-1-4,48.4,42.9,36.4,46.0,41.4,35.3,97,95,87,30.31,30.13,6,2,9,0.02
2013-1-5,43.7,41.0,38.7,42.5,39.5,37.1,97,94,90,30.17,30.09,7,1,7,0.06
2013-1-6,45.4,40.9,36.2,42.7,39.0,34.8,96,93,87,30.18,29.95,6,2,9,0.07
2013-1-7,50.4,45.7,41.9,49.3,44.3,40.3,98,95,91,30.16,29.81,11,3,14,0.25
2013-1-8,50.9,46.5,42.1,49.8,45.4,41.0,98,96,94,30.15,29.73,17,2,19,0.82
2013-1-9,49.3,39.1,32.9,48.5,38.0,31.9,97,96,94,29.92,29.71,10,3,13,1.22
2013-1-10,39.2,35.4,31.9,37.4,34.1,31.2,98,95,91,30.10,29.91,4,1,7,0.02
2013-1-11,38.7,32.1,26.5,33.2,27.8,23.9,96,84,64,30.30,30.10,8,2,10,0.02
2013-1-12,37.3,29.6,23.2,33.3,25.8,21.4,95,86,71,30.42,30.29,5,1,6,0.00
2013-1-13,36.7,29.2,24.5,32.1,26.3,22.0,93,89,81,30.47,30.41,4,1,4,0.00
2013-1-14,34.6,28.8,24.7,31.6,26.7,22.9,94,92,89,30.55,30.45,6,1,7,0.00
2013-1-15,42.5,34.6,29.9,36.2,31.9,28.1,94,90,76,30.68,30.55,3,1,3,0.00
2013-1-16,38.7,32.7,28.1,36.3,31.1,26.5,96,94,90,30.65,30.49,3,1,4,0.00
2013-1-17,37.8,34.3,31.1,36.5,33.1,29.9,97,95,93,30.50,30.28,3,1,3,0.01
2013-1-18,38.5,32.3,28.6,36.1,31.0,27.4,97,95,90,30.31,30.24,4,0,4,0.00
2013-1-19,38.5,36.1,32.9,36.6,34.5,31.7,96,94,91,30.36,30.30,6,2,7,0.00
2013-1-20,39.1,36.0,33.5,37.4,34.5,31.9,97,95,92,30.37,30.24,5,1,6,0.00
2013-1-21,38.2,34.9,30.2,36.5,33.5,29.0,96,95,93,30.26,30.11,4,1,5,0.00
2013-1-22,38.2,32.5,26.5,36.0,31.0,24.9,97,94,92,30.12,29.89,3,0,3,0.00
2013-1-23,39.6,38.1,36.0,38.3,36.1,33.7,96,92,86,30.13,29.83,10,2,12,0.18
2013-1-24,42.8,38.2,32.4,40.7,36.9,31.4,97,95,89,30.18,30.03,5,1,7,0.16
2013-1-25,51.3,44.2,37.3,48.4,42.5,35.9,97,94,84,30.04,29.90,6,1,9,0.02
2013-1-26,47.9,41.1,36.9,42.9,38.9,35.8,97,92,79,30.02,29.85,8,2,9,0.07
2013-1-27,42.1,39.2,36.4,40.5,37.7,35.2,96,94,93,30.05,29.97,6,2,8,0.09
2013-1-28,44.3,40.9,35.1,41.6,38.7,33.8,96,92,88,30.07,29.98,10,2,13,0.01
2013-1-29,50.9,46.8,44.3,45.6,43.4,40.9,93,88,80,30.36,30.06,8,2,11,0.01
2013-1-30,51.1,47.3,44.6,49.2,45.8,42.8,96,95,93,30.37,30.29,8,1,10,0.27
2013-1-31,50.8,46.2,43.2,47.8,44.7,42.4,97,94,87,30.38,30.28,7,1,10,0.03
2013-2-1,49.9,45.3,41.4,46.5,43.4,39.8,97,93,84,30.38,30.31,4,1,5,0.04
2013-2-2,44.8,41.7,36.4,42.5,40.0,34.5,96,94,88,30.35,30.23,8,2,8,0.00
2013-2-3,48.2,42.0,34.4,45.2,40.3,33.0,97,94,86,30.29,30.19,6,1,8,0.01
2013-2-4,50.6,45.1,40.1,45.9,42.6,38.3,96,91,80,30.20,29.88,5,1,6,0.01
2013-2-5,50.9,44.8,41.6,46.4,42.5,40.2,95,92,81,29.94,29.82,11,2,16,0.20
2013-2-6,51.3,44.6,41.2,45.3,41.9,40.1,96,90,78,30.03,29.76,7,1,10,0.08
2013-2-7,49.0,41.3,34.0,42.0,37.5,32.4,94,87,66,30.16,29.80,6,1,11,0.06
2013-2-8,46.3,38.6,31.9,39.6,35.4,30.2,96,88,73,30.29,30.16,4,1,4,0.01
2013-2-9,47.5,38.4,34.2,41.7,35.7,32.6,94,90,77,30.28,30.24,3,1,3,0.00
2013-2-10,46.8,44.2,41.9,41.3,39.1,37.9,86,82,77,30.35,30.30,5,1,6,0.00
2013-2-11,46.8,42.5,36.4,42.8,39.8,34.5,95,90,83,30.34,30.30,6,1,7,0.11
2013-2-12,53.5,47.2,43.6,48.3,44.9,42.5,96,92,80,30.39,30.31,10,2,14,0.02
2013-2-13,51.7,46.0,41.4,45.5,42.6,39.2,95,88,75,30.50,30.31,8,2,11,0.03
2013-2-14,50.8,44.6,38.9,47.0,42.4,37.0,95,92,86,30.53,30.48,4,1,6,0.01
2013-2-15,53.6,46.1,38.9,47.8,43.3,37.0,97,90,76,30.52,30.16,6,2,7,0.00
2013-2-16,52.2,43.8,37.8,44.9,39.9,35.2,97,87,71,30.18,30.14,10,3,14,0.04
2013-2-17,49.9,40.6,33.5,41.6,36.3,31.6,95,85,66,30.23,30.08,7,1,9,0.00
2013-2-18,48.6,40.7,35.3,41.3,36.6,33.5,95,86,69,30.08,29.72,9,1,9,0.02
2013-2-19,50.0,42.1,34.9,41.9,37.7,32.8,93,85,66,29.99,29.70,4,1,6,0.03
2013-2-20,47.9,39.7,32.8,41.9,37.0,30.7,95,90,77,30.03,29.96,6,1,9,0.07
2013-2-21,45.2,41.4,38.9,41.9,39.4,37.0,95,93,86,30.08,29.99,10,2,13,0.13
2013-2-22,46.1,41.0,36.9,44.5,39.2,34.1,96,93,84,30.06,29.71,13,3,15,0.93
2013-2-23,50.4,41.7,36.7,39.9,36.1,32.6,94,81,61,30.36,29.92,10,3,12,0.02
2013-2-24,50.0,44.0,39.2,40.2,37.4,34.9,88,78,65,30.37,29.92,9,2,12,0.02
2013-2-25,51.5,42.4,35.3,41.2,37.4,31.6,95,83,57,30.29,29.89,11,3,14,0.27
2013-2-26,52.2,42.0,34.4,40.5,36.1,31.6,93,80,61,30.33,30.17,8,2,10,0.02
2013-2-27,48.1,44.7,39.4,43.9,41.8,36.5,95,89,81,30.28,30.17,4,1,6,0.14
2013-2-28,52.9,48.0,43.4,51.5,46.5,42.0,96,95,93,30.31,30.16,6,1,9,0.91
2013-3-1,59.4,53.2,49.3,54.7,50.5,47.0,96,91,82,30.36,30.26,7,2,9,0.04
2013-3-2,58.5,49.4,38.3,50.9,44.9,33.9,92,85,71,30.26,30.07,11,3,13,0.02
2013-3-3,51.5,41.5,34.2,41.9,35.7,31.2,92,80,63,30.27,30.18,7,2,8,0.00
2013-3-4,52.9,40.1,29.7,39.5,33.2,27.7,94,78,52,30.27,29.89,8,2,8,0.01
2013-3-5,48.6,41.9,35.6,41.7,37.7,32.0,94,85,75,29.89,29.69,3,1,5,0.09
2013-3-6,45.5,42.5,40.5,42.6,40.1,38.5,95,91,88,29.88,29.55,3,1,7,0.42
2013-3-7,54.4,44.6,36.9,46.3,40.8,34.7,96,87,66,30.06,29.88,7,1,10,0.51
2013-3-8,51.5,43.6,35.6,44.7,39.5,32.9,96,86,68,30.22,30.05,5,2,7,0.00
2013-3-9,48.8,36.8,31.7,44.7,34.8,29.9,95,93,80,30.43,30.22,3,1,4,0.00
2013-3-10,48.2,45.8,44.6,43.2,42.3,41.3,88,87,81,30.44,30.41,3,1,3,0.03
2013-3-11,48.1,47.7,47.2,47.0,46.5,45.8,96,96,95,30.17,30.15,3,2,6,0.00
2013-3-12,57.6,51.4,48.1,53.1,49.3,47.0,97,93,84,30.15,30.07,8,2,11,0.34
2013-3-13,52.6,49.5,48.2,50.2,48.1,46.6,96,95,92,30.15,30.07,5,1,6,0.32
2013-3-14,54.5,49.8,47.3,51.4,47.8,46.2,97,93,79,30.13,30.01,5,1,10,0.07
2013-3-15,57.6,51.8,47.0,54.0,49.4,45.4,96,92,82,30.20,30.13,5,1,9,0.23
2013-3-16,52.4,45.5,36.7,48.3,42.4,34.6,95,89,74,30.13,29.93,9,2,11,0.18
2013-3-17,48.6,41.6,37.4,42.9,36.3,33.7,94,82,64,30.21,29.97,10,3,11,0.03
2013-3-18,54.7,43.4,35.5,42.0,35.6,30.9,95,76,46,30.21,30.14,9,2,13,0.05
2013-3-19,47.3,40.9,33.8,42.5,37.3,30.2,94,87,70,30.19,29.56,3,1,4,0.38
2013-3-20,50.9,45.7,36.0,49.3,42.9,33.4,97,90,79,30.04,29.36,13,3,14,0.89
2013-3-21,47.2,39.1,33.7,41.1,35.5,29.5,96,87,69,30.20,30.04,10,3,12,0.11
2013-3-22,49.5,37.5,28.8,37.8,32.1,27.0,95,82,59,30.31,30.20,5,1,7,0.00
2013-3-23,39.8,36.3,33.7,30.5,29.9,29.2,84,78,69,30.29,30.27,2,1,2,0.00
2013-3-24,53.6,40.7,30.6,39.3,33.1,27.5,91,76,48,30.27,30.09,3,1,3,0.00
2013-3-25,58.7,45.3,32.8,41.9,35.5,30.3,94,72,38,30.10,29.91,3,1,4,0.00
2013-3-26,59.8,50.9,44.6,44.8,41.5,38.6,83,71,52,30.00,29.93,4,1,5,0.01
2013-3-27,58.3,50.4,45.9,46.7,43.1,41.0,85,77,59,29.97,29.92,4,1,6,0.00
2013-3-28,58.9,50.6,46.1,51.9,46.4,42.0,94,86,71,30.12,29.96,3,1,6,0.06
2013-3-29,64.8,52.1,45.5,50.9,46.0,41.6,94,81,53,30.24,30.12,3,1,4,0.01
2013-3-30,67.0,51.0,39.4,51.8,43.6,37.2,95,77,48,30.23,30.05,9,2,9,0.16
2013-3-31,72.7,53.5,40.1,51.6,44.0,37.4,94,72,44,30.05,29.89,7,1,7,0.00
2013-4-1,65.2,52.9,44.8,51.8,46.4,41.2,91,79,55,30.15,29.97,8,1,8,0.00
2013-4-2,56.9,51.1,45.5,50.0,46.4,42.1,91,84,76,30.18,30.13,4,1,5,0.00
2013-4-3,61.2,52.1,45.7,49.5,45.3,42.4,90,78,61,30.18,29.92,4,1,4,0.00
2013-4-4,55.4,50.9,47.5,53.6,47.9,43.9,96,89,81,29.92,29.63,5,1,10,0.24
2013-4-5,60.5,52.6,47.9,53.6,49.7,46.0,96,90,74,29.86,29.70,8,2,13,0.03
2013-4-6,56.5,49.0,43.7,49.0,45.4,41.3,96,88,72,29.91,29.69,9,2,12,0.02
2013-4-7,52.9,44.8,39.2,46.5,42.0,37.6,96,90,75,29.85,29.47,7,2,11,0.00
2013-4-8,58.7,47.3,37.8,48.8,42.4,35.4,95,84,67,30.24,29.85,6,1,7,0.04
2013-4-9,58.5,48.8,39.2,47.3,42.7,37.2,94,80,60,30.31,30.16,6,1,8,0.07
2013-4-10,51.3,48.6,45.5,44.5,42.0,39.8,81,78,74,30.24,30.09,9,2,10,0.04
2013-4-11,61.2,49.5,40.5,46.4,40.8,36.3,92,73,50,30.26,30.18,9,2,13,0.08
2013-4-12,49.3,42.6,38.3,42.8,37.9,33.5,94,83,68,30.16,29.69,9,2,12,0.00
2013-4-13,51.5,41.5,36.4,45.1,36.9,32.4,91,84,78,29.97,29.78,11,3,13,0.00
2013-4-14,55.1,43.5,36.4,45.2,39.0,33.8,94,84,64,29.99,29.90,4,1,5,0.01
2013-4-15,61.2,44.1,34.6,45.8,38.6,32.4,95,82,52,30.15,29.91,5,1,6,0.01
2013-4-16,58.3,45.1,35.5,45.9,38.1,33.3,95,78,47,30.37,30.15,13,2,13,0.02
2013-4-17,63.7,47.7,35.5,44.7,38.2,31.8,90,72,45,30.43,30.37,6,1,8,0.01
2013-4-18,57.4,49.2,42.7,47.6,43.2,35.9,91,80,66,30.43,30.20,7,1,8,0.00
2013-4-19,60.1,51.3,46.8,55.2,48.5,43.8,94,90,80,30.20,30.03,8,2,9,0.00
2013-4-20,62.6,51.7,44.6,48.8,44.5,41.0,92,77,54,30.25,30.19,9,2,12,0.16
2013-4-21,60.8,48.8,41.9,46.5,42.2,38.8,90,79,50,30.33,30.18,10,2,12,0.00
2013-4-22,62.3,48.1,35.8,44.6,36.6,28.6,94,69,32,30.48,30.33,8,2,9,0.01
2013-4-23,63.9,48.4,34.2,43.8,33.8,28.5,84,60,31,30.39,30.20,7,2,8,0.00
2013-4-24,69.7,53.2,38.5,44.5,37.0,33.5,85,57,32,30.29,30.03,5,1,5,0.00
2013-4-25,72.5,53.9,41.2,46.2,40.2,35.6,86,63,36,30.06,30.00,5,2,5,0.00
2013-4-27,60.1,54.8,50.4,49.6,46.0,41.4,89,73,58,30.21,30.18,9,2,11,0.01
2013-4-28,62.3,53.5,47.7,49.8,44.8,39.9,91,74,47,30.19,29.92,9,2,10,0.21
2013-4-29,58.7,49.4,41.4,47.2,37.7,31.6,94,66,41,30.13,29.91,12,4,16,0.02
2013-4-30,57.6,46.0,34.9,39.0,33.5,29.0,85,64,35,30.42,30.13,5,2,6,0.00
2013-5-1,63.7,48.3,34.4,41.0,34.6,29.4,85,62,28,30.55,30.42,8,2,9,0.00
2013-5-2,69.1,54.4,41.6,48.3,40.1,34.0,80,60,43,30.51,30.32,8,2,9,0.00
2013-5-3,68.6,56.8,44.3,51.1,43.9,36.9,82,63,46,30.36,30.18,9,3,10,0.00
2013-5-4,76.3,63.2,53.5,53.6,45.2,38.2,72,54,26,30.18,29.95,8,4,9,0.01
2013-5-5,82.1,65.5,50.6,53.0,45.2,38.3,69,50,22,29.95,29.73,7,2,7,0.00
2013-5-6,84.8,65.2,50.0,56.4,47.7,41.6,77,55,32,29.83,29.73,5,1,9,0.00
2013-5-7,68.8,57.6,49.7,54.7,49.2,45.0,87,74,59,30.00,29.82,6,2,8,0.00
2013-5-8,66.1,56.4,50.8,54.4,49.4,45.7,85,77,64,30.13,30.00,5,1,5,0.00
2013-5-9,71.6,55.9,46.8,57.1,49.8,43.0,92,81,56,30.20,30.08,4,1,5,0.00
2013-5-10,78.1,61.9,48.4,61.0,51.4,40.0,90,70,46,30.18,30.08,5,1,6,0.00
2013-5-11,80.3,63.2,51.8,59.6,50.5,40.4,79,64,42,30.17,29.98,5,1,7,0.00
2013-5-12,68.6,61.7,57.2,59.3,56.0,53.7,92,82,67,30.08,30.00,5,1,9,0.05
2013-5-13,67.1,58.3,54.7,58.9,53.7,46.3,93,85,66,30.06,29.91,11,2,18,0.29
2013-5-16,53.6,53.6,53.5,49.5,49.4,49.3,86,86,86,29.95,29.95,0,0,0,0.00
2013-5-17,66.1,57.6,50.0,54.7,49.9,46.1,90,76,54,30.06,29.95,8,1,8,0.03
2013-5-18,65.3,55.7,49.5,52.9,49.1,45.5,88,79,61,30.25,30.05,5,1,8,0.00
2013-5-19,64.8,56.0,50.9,55.6,50.0,47.8,89,81,65,30.37,30.25,5,1,7,0.00
2013-5-21,60.5,53.2,46.4,50.8,45.1,40.2,92,75,58,29.85,29.77,9,3,10,0.00
2013-5-22,53.3,47.5,42.1,49.0,43.5,39.4,91,86,79,29.90,29.82,6,2,11,0.00
2013-5-23,52.0,47.2,42.1,47.4,44.4,39.7,94,90,81,29.96,29.90,5,1,7,0.00
2013-5-24,59.2,51.7,46.3,52.5,48.0,44.6,95,88,75,30.03,29.93,7,1,7,0.00
2013-5-25,59.8,53.1,47.9,51.5,48.5,46.0,94,85,69,30.01,29.93,5,1,6,0.00
2013-5-26,60.5,54.2,50.0,55.8,51.0,47.2,94,89,80,29.96,29.91,3,1,5,0.00
2013-5-27,62.8,57.8,53.5,58.9,54.2,50.3,93,88,80,29.76,29.67,6,1,9,0.00
2013-5-28,62.5,55.7,50.6,56.5,50.6,46.4,92,83,70,29.86,29.73,7,1,9,0.00
2013-5-29,64.4,54.0,48.6,55.6,49.1,45.9,94,84,61,29.96,29.65,9,1,11,0.00
2013-5-30,63.2,53.5,47.2,53.6,48.1,44.5,91,82,62,30.22,29.96,10,2,10,0.00
2013-5-31,65.7,55.6,48.2,52.0,46.9,43.3,93,74,47,30.31,30.21,5,1,5,0.00
2013-6-1,72.4,60.1,51.1,55.1,49.8,44.9,88,70,49,30.21,30.00,5,1,5,0.00
2013-6-2,66.6,58.9,52.7,54.0,50.1,46.6,85,73,57,30.07,30.00,5,1,7,0.00
2013-6-3,62.3,53.6,48.2,52.4,47.6,44.5,88,80,65,30.09,30.02,4,1,7,0.00
2013-6-4,79.2,62.3,47.7,58.4,51.0,44.0,89,69,45,30.10,29.97,5,1,5,0.00
2013-6-5,77.4,64.3,53.1,59.0,53.0,47.4,83,68,44,30.06,29.97,5,1,5,0.00
2013-6-6,78.3,63.3,52.2,60.9,51.8,46.6,91,68,41,30.03,29.96,5,1,9,0.00
2013-6-7,72.9,60.2,52.7,57.8,48.5,44.0,77,66,48,30.06,29.99,8,2,10,0.00
2013-6-14,57.2,54.9,52.7,48.6,47.7,46.8,80,77,73,30.05,30.00,2,1,2,0.00
2013-6-15,74.9,63.0,49.5,56.1,50.4,45.6,87,65,46,30.00,29.85,4,1,9,0.00
2013-6-16,74.7,61.8,53.3,60.5,52.8,48.0,86,73,53,30.01,29.95,5,2,7,0.00
2013-6-18,73.1,62.8,53.6,55.6,51.4,47.5,91,68,42,29.94,29.82,7,2,11,0.00
2013-6-19,70.4,60.3,50.8,53.4,49.3,46.5,88,69,47,29.93,29.82,7,2,9,0.00
2013-6-20,65.7,58.1,52.9,51.9,49.4,46.5,86,73,56,29.99,29.86,10,2,12,0.00
2013-6-21,68.8,59.8,53.3,55.2,51.1,48.5,86,74,49,30.05,29.99,5,1,5,0.00
2013-6-22,76.1,61.4,50.0,56.3,51.7,46.1,89,73,48,30.00,29.74,4,1,5,0.00
2013-6-23,65.3,63.3,59.4,60.7,59.0,57.1,92,86,81,29.59,29.52,3,1,3,0.00
2013-6-24,66.6,60.1,57.2,57.6,56.6,55.3,94,88,71,29.58,29.49,5,1,5,0.00
2013-6-25,59.6,57.8,57.1,54.9,54.0,53.4,88,87,84,29.73,29.67,1,0,2,0.00
2013-6-26,72.4,63.0,55.8,62.5,57.3,53.6,94,82,62,29.93,29.71,10,1,12,0.00
2013-6-27,68.2,61.9,56.9,63.5,58.9,55.1,95,90,80,30.06,29.90,3,0,4,0.00
2013-6-28,69.8,62.2,59.2,61.9,59.0,56.9,96,90,70,30.05,29.91,4,1,5,0.00
2013-6-29,84.8,72.1,62.6,66.7,60.4,56.7,86,68,48,29.96,29.84,5,1,5,0.00
2013-6-30,85.7,68.9,60.1,67.5,59.6,55.6,88,74,51,29.86,29.74,4,1,4,0.00
2013-7-1,64.6,64.3,64.1,59.4,59.3,59.2,84,84,83,29.85,29.80,1,0,2,0.00
2013-7-3,61.0,59.6,58.7,51.7,51.2,50.8,77,74,70,30.08,30.07,3,1,4,0.00
2013-7-4,69.7,60.9,54.5,58.0,53.1,49.3,86,76,63,30.11,30.02,5,1,6,0.29
2013-7-5,73.1,61.6,51.7,59.0,53.2,47.5,88,75,53,30.02,29.94,5,1,7,0.00
2013-7-6,77.0,63.2,51.5,61.6,54.6,47.9,89,75,55,29.97,29.85,5,1,5,0.00
2013-7-7,74.7,62.2,54.4,62.4,54.9,50.2,88,78,58,29.95,29.87,5,1,6,0.00
2013-7-8,75.1,62.7,54.0,61.8,55.1,49.3,86,77,62,30.08,29.95,5,1,5,0.17
2013-7-9,83.7,68.9,55.8,64.4,57.9,52.6,90,70,46,30.10,29.98,4,1,6,0.00
2013-7-10,73.8,61.9,55.6,59.9,52.4,47.1,83,72,50,30.06,29.94,7,2,7,0.00
2013-7-11,69.5,58.3,50.9,53.6,48.3,45.0,81,70,51,30.06,29.98,4,1,5,0.00
2013-7-12,67.1,58.7,51.8,55.2,49.8,45.9,82,73,62,30.09,29.99,4,1,4,0.00
2013-7-13,77.0,61.2,49.0,56.2,48.5,44.3,86,65,38,30.18,30.08,5,2,6,0.00
2013-7-14,81.0,65.3,51.3,55.4,49.2,44.0,83,59,28,30.12,29.97,5,2,6,0.00
2013-7-15,76.9,65.3,52.2,56.9,50.8,45.8,83,61,42,30.03,29.87,7,3,8,0.00
2013-7-16,81.5,69.7,55.6,58.1,51.8,45.9,77,54,36,29.88,29.78,7,2,9,0.00
2013-7-17,74.3,64.3,55.3,59.0,54.2,49.0,81,70,55,30.19,29.87,6,1,8,0.00
2013-7-18,55.3,54.4,53.5,49.1,48.7,48.2,82,81,80,30.19,30.18,0,0,0,0.00
2013-7-19,80.1,63.1,52.6,63.4,54.8,48.4,90,76,55,30.16,30.02,5,1,9,0.00
2013-7-20,73.1,61.2,54.2,60.5,54.4,49.4,88,79,64,30.08,29.94,5,1,5,0.01
2013-7-21,71.6,61.2,54.9,60.7,54.5,50.3,89,79,63,29.97,29.90,5,2,7,0.00
2013-7-22,74.9,62.2,55.8,61.6,55.7,52.0,92,80,61,30.06,29.94,4,1,5,0.00
2013-7-23,83.3,66.7,54.2,64.3,56.2,51.5,95,72,41,30.06,29.94,4,1,7,0.00
2013-7-24,84.8,67.0,53.3,61.1,55.1,48.8,89,68,41,30.06,29.96,5,1,6,0.00
2013-7-25,83.3,65.4,52.9,58.7,53.6,48.6,89,68,40,30.10,30.02,4,1,5,0.00
2013-7-26,84.2,66.4,52.9,59.5,52.5,47.5,85,63,37,30.14,30.05,4,1,8,0.19
2013-7-27,74.9,61.4,51.5,56.2,51.0,46.9,86,70,49,30.16,29.99,7,2,7,0.16
2013-7-28,71.6,59.4,50.8,56.0,51.1,45.9,87,75,56,30.01,29.95,6,1,8,0.00
2013-7-29,75.6,61.7,52.6,58.8,52.7,48.2,86,73,54,30.00,29.93,5,1,7,0.00
2013-7-30,73.1,61.0,52.7,60.1,53.7,48.6,88,77,61,30.13,30.00,5,1,9,0.00
2013-7-31,69.5,60.7,55.4,60.3,55.2,51.3,89,82,71,30.11,29.96,4,1,6,0.00
2013-8-2,61.7,61.1,59.9,58.3,57.8,57.2,91,89,87,30.11,30.09,2,0,2,0.00
2013-8-8,80.8,70.4,61.6,61.7,57.4,53.0,74,64,50,29.94,29.92,5,1,7,0.00
2013-8-9,67.3,58.4,54.9,58.5,53.5,50.9,92,84,69,29.95,29.89,3,1,4,0.00
2013-8-10,75.2,63.7,57.1,62.9,56.6,51.7,91,78,51,30.01,29.87,6,1,6,0.00
2013-8-11,73.1,65.1,56.5,58.5,54.9,51.0,83,70,58,30.05,29.97,5,1,8,0.00
2013-8-12,76.7,64.6,58.9,59.0,54.2,51.8,82,70,49,30.06,29.99,5,1,6,0.00
2013-8-13,77.8,65.3,55.3,56.8,52.9,49.8,83,66,45,30.09,29.90,4,2,5,0.00
2013-8-14,71.3,62.4,58.3,58.5,55.6,51.1,90,79,62,29.95,29.91,5,1,7,0.00
2013-8-15,68.0,63.2,60.1,64.6,60.6,57.2,93,91,88,29.97,29.90,3,0,5,0.00
2013-8-16,80.5,66.6,58.7,65.8,59.1,53.6,96,79,45,30.00,29.93,8,1,8,0.00
2013-8-17,78.1,67.3,58.5,62.9,57.5,53.5,85,72,52,30.07,30.00,7,1,8,0.00
2013-8-18,76.3,65.7,55.6,61.7,56.3,52.1,89,73,54,30.11,30.05,7,1,8,0.00
2013-8-19,79.9,66.1,54.9,60.4,55.6,51.0,88,71,45,30.10,30.04,8,1,8,0.00
2013-8-20,74.7,61.6,53.8,57.3,52.8,49.6,89,74,49,30.14,30.08,5,1,5,0.00
2013-8-24,73.8,66.7,59.6,58.8,55.4,52.4,87,68,52,29.90,29.83,5,1,6,0.00
2013-8-25,68.2,61.4,53.1,58.2,53.9,49.3,92,77,61,29.93,29.85,4,1,4,0.00
2013-8-26,76.7,63.0,57.8,59.5,55.4,51.1,89,78,42,29.94,29.84,9,1,12,0.00
2013-8-27,74.9,64.8,57.6,61.7,58.3,54.4,93,80,61,29.93,29.77,8,1,8,0.00
2013-8-28,75.6,66.6,60.5,64.3,60.8,58.0,93,82,62,29.87,29.81,4,1,5,0.00
2013-8-29,68.9,64.9,61.9,66.2,62.3,60.0,94,91,89,30.01,29.91,4,0,7,0.00
2013-8-30,74.2,65.2,58.0,61.0,57.7,53.4,95,78,53,30.13,30.01,7,1,7,0.00
2013-8-31,73.3,59.6,53.5,61.2,54.0,50.3,91,82,61,30.06,29.83,4,1,5,0.00
2013-9-2,76.9,70.4,62.3,59.8,57.7,54.9,77,65,53,29.92,29.86,4,1,7,0.00
2013-9-3,71.5,63.7,58.0,63.4,59.4,53.8,99,86,67,29.99,29.92,3,1,3,0.00
2013-9-5,68.0,62.7,59.8,67.8,61.9,59.5,99,97,85,30.01,29.92,5,1,6,0.00
2013-9-6,67.9,65.1,61.0,67.6,64.8,60.8,99,99,96,30.08,29.95,4,1,5,0.00
2013-9-7,76.9,66.5,61.0,73.9,63.9,59.7,99,92,71,30.05,29.99,4,1,5,0.00
2013-9-8,78.7,70.6,64.4,71.7,63.4,48.4,99,80,39,30.09,30.00,3,1,4,0.00
2013-9-9,86.8,71.1,63.7,86.4,69.5,63.5,99,95,71,30.02,29.95,3,1,3,0.00
2013-9-10,126.7,78.6,70.9,92.3,76.4,53.8,99,94,1,29.95,29.85,6,3,7,0.00
2013-9-11,139.7,85.0,73.4,91.4,46.1,-7.5,99,36,1,29.92,29.84,3,1,4,0.00
2013-9-16,70.6,64.0,58.3,61.6,58.7,55.3,95,83,70,29.90,29.85,8,2,8,0.00
2013-9-17,65.7,58.8,53.5,57.2,54.4,51.1,92,86,74,29.91,29.83,3,1,3,0.00
2013-9-18,66.2,56.2,49.5,56.9,52.2,47.8,95,87,70,30.05,29.91,4,1,4,0.00
2013-9-19,73.1,58.6,47.9,55.0,50.5,46.0,93,77,44,30.02,29.74,3,1,4,0.00
2013-9-20,71.8,59.6,52.4,58.5,53.6,49.0,91,81,59,29.75,29.58,6,1,9,0.00
2013-9-21,57.4,55.5,53.6,54.8,53.1,51.3,93,92,91,29.66,29.63,4,0,6,0.00
2013-9-24,50.0,50.0,50.0,43.4,43.1,42.8,78,77,76,29.83,29.82,2,0,3,0.00
2013-9-25,59.8,52.8,49.7,52.2,45.4,41.6,79,76,72,30.00,29.82,6,1,7,0.00
2013-9-26,59.6,51.4,44.6,51.3,43.5,37.0,77,74,70,30.11,30.00,3,1,4,0.00
2013-9-27,57.8,53.2,49.5,49.7,43.9,40.9,75,71,67,30.11,29.83,10,2,12,0.00
2013-9-28,60.3,55.1,50.8,45.8,40.2,33.0,68,57,50,29.83,29.33,7,2,13,0.00
2013-9-29,55.3,52.6,49.0,43.1,36.3,31.2,65,54,46,29.54,29.14,11,2,13,0.00
2013-9-30,59.0,51.0,46.8,51.3,32.8,24.9,77,50,40,29.92,29.43,9,2,13,0.00
2013-10-1,59.0,51.0,46.4,50.8,31.7,20.0,76,50,31,30.11,29.88,5,1,10,0.00
2013-10-2,58.0,49.9,46.1,49.5,28.4,20.6,76,44,33,30.16,30.02,7,1,7,0.00
2013-10-3,56.2,50.2,45.9,48.0,30.8,14.8,75,50,26,30.43,30.16,4,1,5,0.00
2013-10-4,58.9,48.8,43.4,50.2,30.5,13.8,75,52,27,30.46,30.33,4,1,4,0.00
2013-10-14,45.5,45.5,45.5,22.0,22.0,22.0,39,39,39,30.37,30.37,1,1,1,0.00
2013-10-15,55.1,47.4,41.9,41.6,18.0,1.6,62,33,16,30.37,30.15,3,1,3,0.00
2013-10-16,46.6,45.7,44.8,9.5,7.3,4.3,22,21,18,30.16,30.13,1,0,1,0.00
2013-11-2,53.1,51.5,49.1,37.7,2.9,-3.5,60,10,1,29.81,29.49,11,3,15,0.00
2013-11-20,43.9,39.6,33.5,32.1,27.0,10.0,65,61,36,30.47,30.23,8,3,10,0.00
2013-11-21,36.5,36.5,36.5,19.7,19.7,19.7,50,50,50,30.47,30.47,3,3,5,0.00
2013-12-3,39.6,36.0,28.4,28.0,23.6,13.1,65,60,51,30.28,30.16,11,4,12,0.00
2013-12-4,36.9,28.3,25.0,25.5,-2.1,-22.5,64,30,10,30.32,30.26,4,2,5,0.00
2013-12-5,33.3,27.4,23.8,15.5,-12.5,-25.0,49,17,1,30.29,30.15,5,1,5,0.00
2013-12-6,32.2,28.9,26.6,19.4,11.7,-11.4,66,49,18,30.16,30.06,16,8,19,0.00
2013-12-7,30.2,25.4,18.5,14.9,11.2,7.6,65,55,42,30.40,30.16,15,4,19,0.00
2013-12-8,30.6,22.4,16.4,17.3,12.3,7.3,69,65,54,30.56,30.40,6,1,6,0.00
2013-12-9,31.7,27.7,21.2,20.5,14.8,2.5,65,59,31,30.55,30.47,7,1,7,0.00
2013-12-10,38.5,34.1,30.2,2.5,-13.9,-19.3,30,9,1,30.48,30.39,3,0,3,0.00
2013-12-11,40.3,35.0,32.0,-11.9,-16.2,-18.4,1,1,1,30.39,30.16,4,1,4,0.00
2013-12-12,41.6,41.6,41.6,-11.0,-11.0,-11.0,1,1,1,30.11,30.10,5,4,7,0.00
2013-12-13,50.6,45.0,41.2,-4.0,-8.3,-11.2,1,1,1,30.41,30.10,9,3,14,0.00
2013-12-14,49.0,44.3,39.2,-5.2,-8.8,-12.8,1,1,1,30.41,30.30,7,2,9,0.00
2013-12-15,52.4,47.0,44.5,-2.6,-6.8,-8.8,1,1,1,30.44,30.31,9,3,10,0.00
2013-12-16,45.7,43.4,40.0,-7.7,-9.6,-12.2,1,1,1,30.47,30.24,3,1,5,0.00
2013-12-17,46.4,42.6,39.6,-0.1,-10.2,-12.5,15,1,1,30.24,30.08,6,1,9,0.00
2013-12-18,47.5,42.6,37.6,33.0,0.4,-13.8,57,16,1,30.13,29.98,11,1,11,0.00
2013-12-19,40.7,36.7,32.6,27.9,17.0,-42.0,62,48,1,30.32,30.13,9,2,11,0.00
2013-12-20,44.8,37.6,33.1,11.4,-9.9,-17.6,39,7,1,30.18,29.67,9,2,14,0.00
2013-12-21,48.2,44.3,41.9,-5.8,-8.9,-10.7,1,1,1,30.15,29.82,6,0,7,0.00
2013-12-22,51.1,48.0,44.8,-3.6,-6.0,-8.4,1,1,1,30.29,30.13,7,2,10,0.00
2013-12-23,51.7,46.9,38.2,7.7,-6.7,-13.7,18,2,1,30.49,30.15,10,3,13,0.00
2013-12-24,44.5,39.5,35.6,-3.1,-12.5,-15.7,14,2,1,30.60,30.48,3,1,5,0.00
2013-12-25,42.5,39.3,36.7,-10.3,-12.7,-14.7,1,1,1,30.50,30.38,3,1,4,0.00
2013-12-26,41.6,36.4,32.4,-11.0,-15.0,-18.1,1,1,1,30.37,30.18,1,0,1,0.00
2013-12-27,36.4,36.4,36.4,-15.1,-15.1,-15.1,1,1,1,30.18,30.18,1,1,1,0.00
2013-12-28,40.7,40.7,40.7,-11.6,-11.6,-11.6,1,1,1,30.45,30.45,0,0,0,0.00
2013-12-29,44.5,40.5,36.0,-8.8,-11.8,-15.4,1,1,1,30.45,30.29,3,1,3,0.00
2013-12-30,44.8,41.8,38.7,-8.4,-10.9,-13.2,1,1,1,30.30,30.10,7,1,7,0.00
2013-12-31,47.9,44.4,41.8,-6.0,-8.8,-10.8,1,1,1,30.35,30.16,5,1,7,0.00
2014-1-1,44.3,43.2,42.3,-8.9,-9.8,-10.4,1,1,1,30.37,30.22,7,1,7,0.00
2014-1-2,47.7,42.4,41.2,-6.3,-10.3,-11.2,1,1,1,30.22,30.08,3,0,6,0.00